Simultaneous Nadir Overpasses (SNOs) Predictions

Prediction of SNOs between FY3D and NOAA-19 Satellite Orbit:

Table of predicted SNOs for the next 14.0 days since TLE Epoch: 12/26/2020
Index Date (FY3D) Time (FY3D) Lat,Lon (FY3D) SZA (FY3D ) Date (NOAA-19) Time (NOAA-19) Lat,Lon (NOAA-19) SZA (NOAA-19 ) Distance(km) Time Diff (sec)
1 01/05/2021 23:57:41 78.87, 152.70 102.65 01/05/2021 23:56:34 78.88, 152.63 102.68 1.76 67
2 01/06/2021 00:48:25 -78.88, -40.01 77.36 01/06/2021 00:47:31 -78.87, -40.15 77.33 3.07 54
3 01/06/2021 01:39:10 78.87, 127.33 102.64 01/06/2021 01:38:34 78.89, 127.24 102.68 3.02 36
4 01/06/2021 02:29:55 -78.91, -65.63 77.31 01/06/2021 02:29:31 -78.89, -65.54 77.33 3.46 24
5 01/06/2021 03:20:40 78.91, 101.72 102.68 01/06/2021 03:20:34 78.91, 101.86 102.67 3.08 6
6 01/06/2021 04:11:24 -78.91, -91.00 77.32 01/06/2021 04:11:31 -78.90, -90.92 77.34 2.00 7
7 01/06/2021 05:02:09 78.91, 76.35 102.68 01/06/2021 05:02:34 78.92, 76.48 102.67 3.27 25
8 01/06/2021 05:52:53 -78.91,-116.37 77.33 01/06/2021 05:53:31 -78.92,-116.31 77.34 1.26 38
9 01/06/2021 06:43:38 78.91, 50.98 102.67 01/06/2021 06:44:35 78.90, 50.84 102.66 2.93 57
10 01/06/2021 07:34:22 -78.91,-141.74 77.33 01/06/2021 07:35:31 -78.93,-141.70 77.35 2.16 69



Historial Predications of SNOs between FY3D and NOAA-19
